DW6794 Weather Reports


Display with metric or nautical units.
time (UTC)temp
F
wind
direction
speed
MPH
gust
MPH
rain 1hr
in
rain 24hr
in
rain mn
in
humidity
%
barometer
mb
20140418052348 38 148 0.0 0.0 0.00 0.00 0.00 65 1024.4
20140418051348 39 148 0.0 0.0 0.00 0.00 0.00 65 1024.5
20140418050348 39 148 0.0 0.0 0.00 0.00 0.00 64 1024.5
20140418045348 39 148 0.0 0.0 0.00 0.00 0.00 63 1024.6
20140418044347 40 148 0.0 0.0 0.00 0.00 0.00 63 1024.6
20140418043348 40 148 0.0 0.0 0.00 0.00 0.00 61 1024.5
20140418042348 41 148 0.0 0.0 0.00 0.00 0.00 60 1024.3
20140418041348 41 148 0.0 0.0 0.00 0.00 0.00 60 1024.3
20140418040348 41 148 0.0 0.0 0.00 0.00 0.00 60 1024.2
20140418035347 41 148 0.0 0.0 0.00 0.00 0.00 58 1024.3
20140418034348 42 148 0.0 0.0 0.00 0.00 0.00 58 1024.4
20140418033348 42 148 0.0 0.0 0.00 0.00 0.00 57 1024.4
20140418032348 43 148 0.0 0.0 0.00 0.00 0.00 57 1024.4
20140418031348 43 148 0.0 0.0 0.00 0.00 0.00 56 1024.4
20140418030348 43 148 0.0 0.0 0.00 0.00 0.00 55 1024.4
20140418025348 44 148 0.0 0.0 0.00 0.00 0.00 53 1024.5
20140418024348 44 148 0.0 0.0 0.00 0.00 0.00 52 1024.6
20140418023348 45 148 0.0 0.0 0.00 0.00 0.00 51 1024.7
20140418022348 46 148 0.0 0.0 0.00 0.00 0.00 49 1024.5
20140418021348 47 148 0.0 0.0 0.00 0.00 0.00 48 1024.6
20140418020348 47 148 0.0 0.0 0.00 0.00 0.00 45 1024.6
20140418015348 48 148 0.0 0.0 0.00 0.00 0.00 47 1024.6
20140418014348 49 148 0.0 0.0 0.00 0.00 0.00 42 1024.6
20140418013348 49 148 0.0 0.0 0.00 0.00 0.00 43 1024.3
20140418012348 50 148 0.0 0.0 0.00 0.00 0.00 41 1024.1
20140418011349 51 148 0.0 0.0 0.00 0.00 0.00 39 1024.0
20140418010349 53 148 0.0 0.0 0.00 0.00 0.00 39 1023.8
20140418005349 54 148 0.0 0.0 0.00 0.00 0.00 36 1024.0
20140418004348 56 148 0.0 0.0 0.00 0.00 0.00 33 1023.8
20140418003349 57 148 0.0 0.0 0.00 0.00 0.00 33 1023.6
20140418002349 59 148 0.0 0.0 0.00 0.00 0.00 31 1023.1
20140418001349 61 180 0.0 6.0 0.00 0.00 0.00 29 1022.9
20140418000349 62 132 2.0 10.0 0.00 0.00 0.00 29 1022.9
20140417235349 63 169 0.0 5.0 0.00 0.00 0.00 30 1022.8
20140417234348 63 169 2.0 8.0 0.00 0.00 0.00 29 1022.9
20140417233349 64 151 1.0 6.0 0.00 0.00 0.00 31 1022.5
20140417232348 65 90 1.0 5.0 0.00 0.00 0.00 31 1022.5
20140417231350 66 86 5.0 7.0 0.00 0.00 0.00 30 1022.4
20140417230348 66 101 3.0 7.0 0.00 0.00 0.00 29 1022.4
20140417225349 67 89 5.0 9.0 0.00 0.00 0.00 28 1022.6
20140417224349 67 148 2.0 7.0 0.00 0.00 0.00 29 1022.9
20140417223349 67 96 3.0 7.0 0.00 0.00 0.00 29 1022.6
20140417222349 68 82 5.0 9.0 0.00 0.00 0.00 29 1022.2
20140417221349 69 61 3.0 10.0 0.00 0.00 0.00 30 1022.0
20140417220349 69 94 2.0 5.0 0.00 0.00 0.00 29 1022.0
20140417215350 69 53 0.0 0.0 0.00 0.00 0.00 31 1021.9
20140417214349 68 53 0.0 3.0 0.00 0.00 0.00 30 1022.0
20140417213349 69 40 0.0 3.0 0.00 0.00 0.00 32 1022.1
20140417212350 68 40 0.0 1.0 0.00 0.00 0.00 32 1022.3
20140417211349 68 40 1.0 3.0 0.00 0.00 0.00 33 1022.5
20140417210349 68 63 0.0 2.0 0.00 0.00 0.00 32 1022.5
20140417205349 68 49 0.0 6.0 0.00 0.00 0.00 33 1022.4
20140417204349 67 49 1.0 5.0 0.00 0.00 0.00 34 1022.6
20140417203349 67 34 1.0 3.0 0.00 0.00 0.00 34 1022.9
20140417202349 67 32 0.0 3.0 0.00 0.00 0.00 35 1023.0
20140417201350 67 52 0.0 1.0 0.00 0.00 0.00 36 1023.1
20140417200349 66 52 0.0 2.0 0.00 0.00 0.00 37 1023.3
20140417195349 66 52 0.0 8.0 0.00 0.00 0.00 37 1023.4
20140417194349 66 16 0.0 3.0 0.00 0.00 0.00 38 1023.5
20140417193350 66 107 0.0 7.0 0.00 0.00 0.00 39 1023.9
20140417192350 66 69 1.0 3.0 0.00 0.00 0.00 38 1024.0
20140417191350 65 42 0.0 2.0 0.00 0.00 0.00 39 1024.3
20140417190349 65 15 2.0 14.0 0.00 0.00 0.00 40 1024.6
20140417185350 65 45 0.0 1.0 0.00 0.00 0.00 41 1024.6
20140417184350 64 45 0.0 2.0 0.00 0.00 0.00 41 1024.8
20140417183350 64 45 0.0 3.0 0.00 0.00 0.00 43 1024.9
20140417182350 63 39 0.0 3.0 0.00 0.00 0.00 43 1025.0
20140417181350 63 39 6.0 9.0 0.00 0.00 0.00 43 1025.1
20140417180350 63 28 4.0 10.0 0.00 0.00 0.00 43 1025.2
20140417175350 62 17 0.0 7.0 0.00 0.00 0.00 44 1025.4
20140417174350 62 17 0.0 7.0 0.00 0.00 0.00 46 1025.7
20140417173350 61 17 1.0 6.0 0.00 0.00 0.00 46 1025.8
20140417172350 60 67 0.0 1.0 0.00 0.00 0.00 46 1025.9
20140417171350 60 67 1.0 6.0 0.00 0.00 0.00 46 1026.1
20140417170350 60 52 3.0 10.0 0.00 0.00 0.00 48 1026.4
20140417165350 59 61 2.0 7.0 0.00 0.00 0.00 49 1026.5
20140417164350 59 96 0.0 0.0 0.00 0.00 0.00 47 1026.7
20140417163350 58 96 0.0 3.0 0.00 0.00 0.00 50 1026.8
20140417162350 57 47 3.0 5.0 0.00 0.00 0.00 50 1026.9
20140417161350 56 46 2.0 5.0 0.00 0.00 0.00 50 1027.1
20140417160350 56 42 3.0 7.0 0.00 0.00 0.00 52 1027.2
20140417155351 55 40 2.0 8.0 0.00 0.00 0.00 52 1027.2
20140417154350 55 33 0.0 6.0 0.00 0.00 0.00 56 1027.3
20140417153351 54 11 3.0 7.0 0.00 0.00 0.00 56 1027.5
20140417152350 54 19 0.0 0.0 0.00 0.00 0.00 57 1027.5
20140417151350 53 113 0.0 0.0 0.00 0.00 0.00 58 1027.6
20140417150350 52 113 0.0 0.0 0.00 0.00 0.00 62 1027.5
20140417145350 51 119 0.0 0.0 0.00 0.00 0.00 62 1027.7
20140417144350 50 119 0.0 0.0 0.00 0.00 0.00 63 1027.7
20140417143350 50 119 0.0 0.0 0.00 0.00 0.00 64 1027.7
20140417142350 49 178 0.0 0.0 0.00 0.00 0.00 66 1027.7
20140417141350 48 178 0.0 0.0 0.00 0.00 0.00 69 1027.7
20140417140350 47 178 0.0 0.0 0.00 0.00 0.00 70 1027.9
20140417135350 45 177 0.0 0.0 0.00 0.00 0.00 72 1027.7
20140417134351 43 177 0.0 0.0 0.00 0.00 0.00 73 1027.8
20140417133351 42 177 0.0 0.0 0.00 0.00 0.00 74 1027.6
20140417132351 40 157 0.0 0.0 0.00 0.00 0.00 75 1027.6
20140417131350 39 157 0.0 0.0 0.00 0.00 0.00 76 1027.7
20140417130351 38 157 0.0 0.0 0.00 0.00 0.00 75 1027.7
20140417125351 36 157 0.0 0.0 0.00 0.00 0.00 76 1027.5
20140417124351 35 157 0.0 0.0 0.00 0.00 0.00 75 1027.5
20140417123351 35 157 0.0 0.0 0.00 0.00 0.00 76 1027.5
20140417122351 34 157 0.0 0.0 0.00 0.00 0.00 76 1027.5
20140417121351 33 157 0.0 0.0 0.00 0.00 0.00 76 1027.5
20140417120351 32 157 0.0 0.0 0.00 0.00 0.00 76 1027.6
20140417115351 31 157 0.0 0.0 0.00 0.00 0.00 76 1027.4
20140417114351 30 129 0.0 0.0 0.00 0.00 0.00 76 1027.2
20140417113351 29 129 0.0 0.0 0.00 0.00 0.00 75 1027.1
20140417112351 28 130 0.0 0.0 0.00 0.00 0.00 75 1027.1
20140417111351 28 129 0.0 0.0 0.00 0.00 0.00 75 1027.1
20140417110351 28 129 0.0 0.0 0.00 0.00 0.00 74 1027.0
20140417105351 28 129 0.0 0.0 0.00 0.00 0.00 74 1026.8
20140417104352 28 129 0.0 0.0 0.00 0.00 0.00 74 1026.7
20140417103351 28 130 0.0 0.0 0.00 0.00 0.00 74 1026.6
20140417102351 28 129 0.0 0.0 0.00 0.00 0.00 74 1026.5
20140417101351 28 129 0.0 0.0 0.00 0.00 0.00 74 1026.3
20140417100352 29 129 0.0 0.0 0.00 0.00 0.00 74 1026.3
20140417095352 29 129 0.0 0.0 0.00 0.00 0.00 74 1026.2
20140417094352 29 129 0.0 0.0 0.00 0.00 0.00 73 1026.2
20140417093352 29 129 0.0 0.0 0.00 0.00 0.00 72 1026.2
20140417092352 29 129 0.0 0.0 0.00 0.00 0.00 72 1026.2
20140417091351 30 129 0.0 0.0 0.00 0.00 0.00 72 1026.2
20140417090352 30 129 0.0 0.0 0.00 0.00 0.00 71 1026.2
20140417085352 30 129 0.0 0.0 0.00 0.00 0.00 71 1026.2
20140417084351 30 129 0.0 0.0 0.00 0.00 0.00 71 1026.1
20140417083352 30 129 0.0 0.0 0.00 0.00 0.00 71 1026.0
20140417082351 31 129 0.0 0.0 0.00 0.00 0.00 71 1025.7
20140417081351 31 129 0.0 0.0 0.00 0.00 0.00 70 1025.7
20140417080351 31 129 0.0 0.0 0.00 0.00 0.00 71 1025.5
20140417075352 32 129 0.0 0.0 0.00 0.00 0.00 70 1025.4
20140417074352 32 129 0.0 0.0 0.00 0.00 0.00 70 1025.2
20140417073352 32 129 0.0 0.0 0.00 0.00 0.00 70 1025.2
20140417072351 32 129 0.0 0.0 0.00 0.00 0.00 71 1024.9
20140417071352 32 129 0.0 0.0 0.00 0.00 0.00 69 1024.8
20140417070352 33 129 0.0 0.0 0.00 0.00 0.00 70 1024.6
20140417065352 33 129 0.0 0.0 0.00 0.00 0.00 70 1024.7
20140417064352 33 129 0.0 0.0 0.00 0.00 0.00 69 1024.7
20140417063351 33 129 0.0 1.0 0.00 0.00 0.00 69 1024.7
20140417062352 33 129 0.0 5.0 0.00 0.00 0.00 69 1024.5
20140417061352 33 127 0.0 0.0 0.00 0.00 0.00 69 1024.4
20140417060352 33 127 0.0 0.0 0.00 0.00 0.00 68 1024.6
20140417055352 33 127 0.0 0.0 0.00 0.00 0.00 68 1024.5
20140417054352 33 127 0.0 0.0 0.00 0.00 0.00 67 1024.4
20140417053353 33 127 0.0 0.0 0.00 0.00 0.00 66 1024.3